星链-3626 (STARLINK-3626 )

导读

STARLINK-3626是美国SpaceX公司星链互联网卫星星座中的一员,于2022年2月25日发射入轨。它运行在近地轨道,属于星链星座的卫星通信组网单元,为全球提供高速低延迟的宽带互联网服务,尤其服务传统基础设施缺失区域。 星链卫星采用相控阵天线和氩气推进技术,依托低轨组网优势实现了更低通信时延,是全球低轨卫星互联网部署的重要组成部分,持续推动全球卫星通信网络的覆盖扩展。

Basic Information
目录编号:
51792
目录名称:
STARLINK-3626
国际标识:
2022-017AA
轨道中心:
EARTH
卫星名称:
星链-3626
卫星全名:
星链-3626 (STARLINK-3626 )
卫星状态:
在轨 (已飞行1652 天)
发射日期:
2022-02-25 UTC
国别 :
美国 (US)
星等 :
--
Orbit Information
数据来源 国际轨道数据 AOE轨道数据
星历时间 2026-09-02T15:55:36+0800
1天前
查看轨道信息
2026-08-30T02:00:00+0800
5天前
查看轨道信息
半长轴 6843.367km 6843.347km
偏心率 0.0001136 0.000173
轨道倾角 53.157° 53.157°
近地点辐角 82.830° 58.311°
升交点赤经 264.733° 281.452°
平近点角 277.283° 324.805°
近地点 464.452km 464.026km
远地点 466.008km 466.394km
周期 93.900分钟 93.899分钟
每日圈数 15.335504 15.33557
Detailed Information
固有亮度:
5
最大亮度:
2.5
卫星平台:
Starlink v1.5
覆盖范围:
全球
运营商:
太空探索技术公司
运营商所在国:
美国
制造商(研发单位):
太空探索技术公司
制造商所在国:
美国
使用方式:
暂无
Satellite Introduction
星链(Starlink)计划是由太空探索技术公司(SpaceX)提出的一个巨型低轨卫星互联网星座项目,计划在2019年至2024年间在太空搭建由约1.2万颗卫星组成的“星链”网络,其中1584颗将部署在地球上空550千米处的近地轨道,并从2020年开始工作。该卫星仍在工作。
2D Orbit Map
3D Orbit Map
Orbit Altitude Analysis Chart
Orbit Inclination Analysis Chart
Orbit Comprehensive Analysis Chart
View Comprehensive Chart